User: anonymous   Login
Location: Alsip
(41.6689°N, 87.7387°W)
Time: 14:09:55
(UTC+00:00)
Language:

DMSP B5D2-2 - Orbit

View from above orbital plane
View from above orbital plane
View from above satellite
View from above satellite

Ground track
Ground track

The orbit data is extracted from the following two-line orbital elements,

1 14506U 83113A   20274.80940809  .00000061  00000-0  41145-4 0  9991
2 14506  98.3215 122.3199 0010084 273.3571  97.3944 14.28111558918004
Epoch (UTC): 30 September 2020 19:25:32
Eccentricity: 0.0010084
inclination: 98.3215°
perigee height: 791 km
apogee height: 805 km
right ascension of ascending node: 122.3199°
argument of perigee: 273.3571°
revolutions per day: 14.28111558
mean anomaly at epoch: 97.3944°
orbit number at epoch: 91800

The dashed part of the orbit path shows where the satellite is in the earth's shadow,  

DLR